When you browse on this site, cookies collect data to enhance your experience and personalize the content and advertising you see.
Visit our Privacy Policy to learn more. By continuing to use the site, you agree to this use of cookies and data.
  • In Hungary
  • List of Countries
  • For 7 days
  • Water Temperature
  • Satellite Maps
  • Weather Map
  • News
  • Weather Widgets
  • user-avatar
    Login

    Hourly Weather Luszczanowek

    Today, 16 January, Wednesday

    Time Temperature Precipitation Wind Pressure Humidity
    00:00 +1°C° 0.1 mm 9 mps 739 mmHg 87%
    01:00 +1°C° 0.1 mm 9 mps 739 mmHg 86%
    02:00 +1°C° 0.1 mm 8 mps 740 mmHg 86%
    03:00 +1°C° 0.1 mm 8 mps 741 mmHg 86%
    04:00 0°C° 0.1 mm 7 mps 741 mmHg 86%
    05:00 +1°C° 0.1 mm 6 mps 742 mmHg 87%
    06:00 +1°C° 0.1 mm 5 mps 742 mmHg 89%
    07:00 0°C° 0.1 mm 4 mps 743 mmHg 91%
    08:00 0°C° 0.3 mm 4 mps 743 mmHg 92%
    09:00 0°C° 0.3 mm 4 mps 744 mmHg 94%
    10:00 +1°C° 0.3 mm 3 mps 744 mmHg 95%
    11:00 +1°C° 0.2 mm 4 mps 744 mmHg 95%
    12:00 +1°C° 0.2 mm 4 mps 744 mmHg 95%
    13:00 +1°C° 0.2 mm 4 mps 744 mmHg 95%
    14:00 +1°C° 0.1 mm 4 mps 744 mmHg 94%
    15:00 +2°C° 0.1 mm 5 mps 744 mmHg 93%
    16:00 +2°C° 0.1 mm 5 mps 744 mmHg 91%
    17:00 +1°C° 0 mm 5 mps 744 mmHg 92%
    18:00 +1°C° 0 mm 5 mps 744 mmHg 92%
    19:00 +1°C° 0 mm 5 mps 744 mmHg 92%
    20:00 +1°C° 0 mm 5 mps 744 mmHg 92%
    21:00 +1°C° 0 mm 5 mps 744 mmHg 91%
    22:00 +2°C° 0 mm 5 mps 744 mmHg 90%
    23:00 +1°C° 0 mm 6 mps 743 mmHg 89%

    Tomorrow, 17 January, Thursday

    Time Temperature Precipitation Wind Pressure Humidity
    00:00 +1°C° 0 mm 6 mps 743 mmHg 88%
    01:00 -1°C° 0 mm 6 mps 742 mmHg 88%
    02:00 -1°C° 0 mm 6 mps 741 mmHg 86%
    03:00 -1°C° 0 mm 6 mps 741 mmHg 85%
    04:00 -1°C° 0 mm 7 mps 740 mmHg 83%
    05:00 -1°C° 0 mm 7 mps 740 mmHg 80%
    06:00 -1°C° 0 mm 7 mps 739 mmHg 76%
    07:00 -1°C° 0 mm 7 mps 739 mmHg 72%
    08:00 0°C° 0 mm 8 mps 740 mmHg 72%
    09:00 0°C° 0 mm 8 mps 740 mmHg 72%
    10:00 +1°C° 0 mm 8 mps 740 mmHg 72%
    11:00 +1°C° 0 mm 8 mps 740 mmHg 73%
    12:00 +2°C° 0 mm 8 mps 740 mmHg 74%
    13:00 +3°C° 0 mm 7 mps 740 mmHg 75%
    14:00 +3°C° 0 mm 7 mps 740 mmHg 75%
    15:00 +3°C° 0 mm 6 mps 740 mmHg 75%
    16:00 +3°C° 0 mm 6 mps 740 mmHg 75%
    17:00 +2°C° 0 mm 6 mps 740 mmHg 76%
    18:00 +2°C° 0 mm 6 mps 739 mmHg 78%
    19:00 +2°C° 0 mm 7 mps 739 mmHg 80%
    20:00 +2°C° 0.2 mm 7 mps 739 mmHg 78%
    21:00 0°C° 0.2 mm 7 mps 740 mmHg 76%
    22:00 0°C° 0.2 mm 8 mps 740 mmHg 75%
    23:00 0°C° 0 mm 8 mps 741 mmHg 71%

    Day after tomorrow, 18 January, Friday

    Time Temperature Precipitation Wind Pressure Humidity
    00:00 -1°C° 0 mm 8 mps 741 mmHg 68%
    01:00 -1°C° 0 mm 8 mps 742 mmHg 65%
    02:00 -2°C° 0 mm 8 mps 742 mmHg 67%
    03:00 -2°C° 0 mm 8 mps 742 mmHg 69%
    04:00 -4°C° 0 mm 8 mps 743 mmHg 72%
    05:00 -4°C° 0.1 mm 8 mps 744 mmHg 73%
    06:00 -4°C° 0.1 mm 8 mps 745 mmHg 75%
    07:00 -3°C° 0.1 mm 7 mps 746 mmHg 76%
    08:00 -3°C° 0.1 mm 7 mps 747 mmHg 73%
    09:00 -3°C° 0.1 mm 7 mps 748 mmHg 70%
    10:00 -3°C° 0.1 mm 7 mps 749 mmHg 66%
    11:00 -3°C° 0 mm 7 mps 749 mmHg 64%
    12:00 -3°C° 0 mm 7 mps 750 mmHg 61%
    13:00 -2°C° 0 mm 7 mps 751 mmHg 58%
    14:00 -3°C° 0 mm 6 mps 751 mmHg 60%
    15:00 -2°C° 0 mm 5 mps 752 mmHg 62%
    16:00 -3°C° 0 mm 4 mps 752 mmHg 64%
    17:00 -3°C° 0 mm 4 mps 753 mmHg 67%
    18:00 -3°C° 0 mm 4 mps 753 mmHg 71%
    19:00 -3°C° 0 mm 4 mps 754 mmHg 74%
    20:00 -4°C° 0 mm 4 mps 754 mmHg 74%
    21:00 -4°C° 0 mm 4 mps 754 mmHg 74%
    22:00 -4°C° 0 mm 4 mps 754 mmHg 74%
    23:00 -4°C° 0 mm 4 mps 754 mmHg 73%

    19 January, Saturday

    Time Temperature Precipitation Wind Pressure Humidity
    00:00 -4°C° 0 mm 4 mps 754 mmHg 71%
    01:00 -4°C° 0 mm 4 mps 754 mmHg 70%
    02:00 -5°C° 0 mm 5 mps 754 mmHg 71%
    03:00 -4°C° 0 mm 5 mps 754 mmHg 73%
    04:00 -4°C° 0 mm 5 mps 754 mmHg 75%
    05:00 -3°C° 0 mm 4 mps 754 mmHg 77%
    06:00 -3°C° 0 mm 4 mps 754 mmHg 79%
    07:00 -4°C° 0 mm 4 mps 754 mmHg 81%
    08:00 -3°C° 0 mm 4 mps 754 mmHg 80%
    09:00 -3°C° 0 mm 4 mps 754 mmHg 78%
    10:00 -2°C° 0 mm 4 mps 755 mmHg 77%
    11:00 -2°C° 0 mm 4 mps 754 mmHg 75%
    12:00 -1°C° 0 mm 4 mps 754 mmHg 73%
    13:00 0°C° 0 mm 4 mps 754 mmHg 71%
    14:00 0°C° 0 mm 3 mps 754 mmHg 75%
    15:00 -1°C° 0 mm 3 mps 754 mmHg 79%
    16:00 -2°C° 0 mm 2 mps 754 mmHg 83%
    17:00 -2°C° 0 mm 2 mps 754 mmHg 84%
    18:00 -2°C° 0 mm 2 mps 754 mmHg 85%
    19:00 -3°C° 0 mm 2 mps 754 mmHg 87%
    20:00 -3°C° 0 mm 2 mps 754 mmHg 87%
    21:00 -3°C° 0 mm 2 mps 754 mmHg 87%
    22:00 -3°C° 0 mm 2 mps 754 mmHg 87%
    23:00 -3°C° 0 mm 2 mps 754 mmHg 88%

    20 January, Sunday

    Time Temperature Precipitation Wind Pressure Humidity
    00:00 -3°C° 0 mm 2 mps 754 mmHg 88%
    01:00 -3°C° 0 mm 2 mps 754 mmHg 89%
    02:00 -3°C° 0 mm 2 mps 754 mmHg 90%
    03:00 -3°C° 0 mm 2 mps 754 mmHg 91%
    04:00 -3°C° 0 mm 2 mps 754 mmHg 92%
    05:00 -3°C° 0 mm 2 mps 754 mmHg 93%
    06:00 -3°C° 0 mm 2 mps 754 mmHg 93%
    07:00 -4°C° 0 mm 2 mps 755 mmHg 94%
    08:00 -4°C° 0 mm 3 mps 755 mmHg 91%
    09:00 -4°C° 0 mm 3 mps 755 mmHg 87%
    10:00 -2°C° 0 mm 3 mps 756 mmHg 84%
    11:00 -3°C° 0 mm 4 mps 756 mmHg 74%
    12:00 -2°C° 0 mm 4 mps 756 mmHg 63%
    13:00 -1°C° 0 mm 5 mps 756 mmHg 53%
    14:00 -2°C° 0 mm 4 mps 756 mmHg 55%
    15:00 -2°C° 0 mm 4 mps 756 mmHg 56%
    16:00 -2°C° 0 mm 3 mps 756 mmHg 58%
    17:00 -2°C° 0 mm 3 mps 757 mmHg 60%
    18:00 -4°C° 0 mm 4 mps 757 mmHg 63%
    19:00 -4°C° 0 mm 4 mps 758 mmHg 66%
    20:00 -4°C° 0 mm 4 mps 758 mmHg 67%
    21:00 -4°C° 0 mm 4 mps 759 mmHg 68%
    22:00 -5°C° 0 mm 3 mps 759 mmHg 69%
    23:00 -5°C° 0 mm 3 mps 759 mmHg 69%

    21 January, Monday

    Time Temperature Precipitation Wind Pressure Humidity
    00:00 -5°C° 0 mm 3 mps 760 mmHg 70%
    01:00 -5°C° 0 mm 3 mps 760 mmHg 71%
    02:00 -5°C° 0 mm 3 mps 760 mmHg 72%
    03:00 -5°C° 0 mm 3 mps 761 mmHg 73%
    04:00 -6°C° 0 mm 3 mps 761 mmHg 75%
    05:00 -5°C° 0 mm 2 mps 761 mmHg 76%
    06:00 -5°C° 0 mm 2 mps 762 mmHg 77%
    07:00 -5°C° 0 mm 2 mps 762 mmHg 78%
    08:00 -4°C° 0 mm 2 mps 762 mmHg 75%
    09:00 -4°C° 0 mm 2 mps 763 mmHg 72%
    10:00 -3°C° 0 mm 2 mps 763 mmHg 69%
    11:00 -3°C° 0 mm 2 mps 763 mmHg 66%
    12:00 -2°C° 0 mm 2 mps 763 mmHg 62%
    13:00 -2°C° 0 mm 2 mps 763 mmHg 59%
    14:00 -2°C° 0 mm 2 mps 763 mmHg 62%
    15:00 -3°C° 0 mm 2 mps 762 mmHg 64%
    16:00 -3°C° 0 mm 2 mps 762 mmHg 66%
    17:00 -4°C° 0 mm 2 mps 762 mmHg 67%
    18:00 -4°C° 0 mm 2 mps 762 mmHg 68%
    19:00 -4°C° 0 mm 2 mps 762 mmHg 68%
    20:00 -4°C° 0 mm 2 mps 762 mmHg 68%
    21:00 -4°C° 0 mm 2 mps 762 mmHg 69%
    22:00 -4°C° 0 mm 2 mps 762 mmHg 69%
    23:00 -5°C° 0 mm 2 mps 761 mmHg 69%
    Show more